Location: Bronschhofen
(47.4788°N, 9.0353°E)
Time: 19:34:20
(UTC+00:00)

Meteor 1-21 - Pass Details

Date: 20 May 2022
Orbit: 844 x 888 km, 81.2° (Epoch: 01 July)

Event Time Altitude Azimuth Distance (km) Brightness Sun altitude
Exits shadow 00:26:46 41° 208° (SSW) 1,272 4.6 -21.0°
Maximum altitude 00:28:53 73° 283° (WNW) 930 4.3 -20.8°
Drops below altitude 10° 00:34:44 10° 8° (N) 2,562 7.9 -20.5°
Sets 00:37:12 0° 11° (N) 3,503 8.9 -20.4°
